Year,Month,Day,Hour,Minute,Value (Times are PST for temperature in C)
2006,05,02,00,00,6.80
2006,05,02,00,01,6.80
2006,05,02,00,02,6.80
2006,05,02,00,03,6.80
2006,05,02,00,04,6.80
2006,05,02,00,05,6.80
2006,05,02,00,06,6.80
2006,05,02,00,07,6.80
2006,05,02,00,08,6.80
2006,05,02,00,09,6.80
2006,05,02,00,10,6.80
2006,05,02,00,11,6.80
2006,05,02,00,12,6.80
2006,05,02,00,13,6.80
2006,05,02,00,14,6.80
2006,05,02,00,15,6.80
2006,05,02,00,16,6.80
2006,05,02,00,17,6.80
2006,05,02,00,18,6.80
2006,05,02,00,19,6.80
2006,05,02,00,20,6.80
2006,05,02,00,21,6.80
2006,05,02,00,22,6.80
2006,05,02,00,23,6.80
2006,05,02,00,24,6.80
2006,05,02,00,25,6.80
2006,05,02,00,26,6.80
2006,05,02,00,27,6.80
2006,05,02,00,28,6.80
2006,05,02,00,29,6.80
2006,05,02,00,30,6.80
2006,05,02,00,31,6.80
2006,05,02,00,32,6.80
2006,05,02,00,33,6.80
2006,05,02,00,34,6.80
2006,05,02,00,35,6.80
2006,05,02,00,36,6.80
2006,05,02,00,37,6.80
2006,05,02,00,38,6.80
2006,05,02,00,39,6.80
2006,05,02,00,40,6.80
2006,05,02,00,41,6.70
2006,05,02,00,42,6.70
2006,05,02,00,43,6.70
2006,05,02,00,44,6.70
2006,05,02,00,45,6.70
2006,05,02,00,46,6.70
2006,05,02,00,47,6.70
2006,05,02,00,48,6.70
2006,05,02,00,49,6.70
2006,05,02,00,50,6.60
2006,05,02,00,51,6.60
2006,05,02,00,52,6.60
2006,05,02,00,53,6.60
2006,05,02,00,54,6.60
2006,05,02,00,55,6.60
2006,05,02,00,56,6.60
2006,05,02,00,57,6.40
2006,05,02,00,58,6.40
2006,05,02,00,59,6.40
2006,05,02,01,00,6.40
2006,05,02,01,01,6.30
2006,05,02,01,02,6.30
2006,05,02,01,03,6.40
2006,05,02,01,04,6.40
2006,05,02,01,05,6.40
2006,05,02,01,06,6.40
2006,05,02,01,07,6.40
2006,05,02,01,08,6.50
2006,05,02,01,09,6.60
2006,05,02,01,10,6.60
2006,05,02,01,11,6.50
2006,05,02,01,12,6.40
2006,05,02,01,13,6.40
2006,05,02,01,14,6.40
2006,05,02,01,15,6.40
2006,05,02,01,16,6.40
2006,05,02,01,17,6.40
2006,05,02,01,18,6.40
2006,05,02,01,19,6.40
2006,05,02,01,20,6.30
2006,05,02,01,21,6.30
2006,05,02,01,22,6.30
2006,05,02,01,23,6.20
2006,05,02,01,24,6.20
2006,05,02,01,25,6.20
2006,05,02,01,26,6.20
2006,05,02,01,27,6.20
2006,05,02,01,28,6.10
2006,05,02,01,29,6.10
2006,05,02,01,30,6.10
2006,05,02,01,31,6.00
2006,05,02,01,32,6.00
2006,05,02,01,33,6.00
2006,05,02,01,34,6.00
2006,05,02,01,35,6.00
2006,05,02,01,36,6.00
2006,05,02,01,37,6.00
2006,05,02,01,38,6.00
2006,05,02,01,39,6.00
2006,05,02,01,40,6.00
2006,05,02,01,41,6.00
2006,05,02,01,42,6.00
2006,05,02,01,43,6.10
2006,05,02,01,44,6.10
2006,05,02,01,45,6.10
2006,05,02,01,46,6.10
2006,05,02,01,47,6.10
2006,05,02,01,48,6.00
2006,05,02,01,49,6.00
2006,05,02,01,50,6.00
2006,05,02,01,51,5.90
2006,05,02,01,52,5.90
2006,05,02,01,53,5.90
2006,05,02,01,54,5.80
2006,05,02,01,55,5.80
2006,05,02,01,56,5.80
2006,05,02,01,57,5.70
2006,05,02,01,58,5.70
2006,05,02,01,59,5.70
2006,05,02,02,00,5.70
2006,05,02,02,01,5.70
2006,05,02,02,02,5.70
2006,05,02,02,03,5.70
2006,05,02,02,04,5.70
2006,05,02,02,05,5.70
2006,05,02,02,06,5.70
2006,05,02,02,07,5.70
2006,05,02,02,08,5.70
2006,05,02,02,09,5.70
2006,05,02,02,10,5.70
2006,05,02,02,11,5.70
2006,05,02,02,12,5.70
2006,05,02,02,13,5.70
2006,05,02,02,14,5.60
2006,05,02,02,15,5.60
2006,05,02,02,16,5.60
2006,05,02,02,17,5.50
2006,05,02,02,18,5.50
2006,05,02,02,19,5.40
2006,05,02,02,20,5.40
2006,05,02,02,21,5.30
2006,05,02,02,22,5.30
2006,05,02,02,23,5.30
2006,05,02,02,24,5.20
2006,05,02,02,25,5.20
2006,05,02,02,26,5.10
2006,05,02,02,27,5.10
2006,05,02,02,28,5.10
2006,05,02,02,29,5.10
2006,05,02,02,30,5.00
2006,05,02,02,31,4.90
2006,05,02,02,32,4.90
2006,05,02,02,33,4.90
2006,05,02,02,34,4.90
2006,05,02,02,35,4.90
2006,05,02,02,36,4.90
2006,05,02,02,37,4.90
2006,05,02,02,38,4.90
2006,05,02,02,39,4.90
2006,05,02,02,40,4.90
2006,05,02,02,41,4.80
2006,05,02,02,42,4.80
2006,05,02,02,43,4.80
2006,05,02,02,44,4.70
2006,05,02,02,45,4.70
2006,05,02,02,46,4.70
2006,05,02,02,47,4.70
2006,05,02,02,48,4.60
2006,05,02,02,49,4.60
2006,05,02,02,50,4.60
2006,05,02,02,51,4.60
2006,05,02,02,52,4.60
2006,05,02,02,53,4.60
2006,05,02,02,54,4.60
2006,05,02,02,55,4.60
2006,05,02,02,56,4.60
2006,05,02,02,57,4.60
2006,05,02,02,58,4.50
2006,05,02,02,59,4.50
2006,05,02,03,00,4.50
2006,05,02,03,01,4.50
2006,05,02,03,02,4.50
2006,05,02,03,03,4.40
2006,05,02,03,04,4.40
2006,05,02,03,05,4.40
2006,05,02,03,06,4.30
2006,05,02,03,07,4.30
2006,05,02,03,08,4.30
2006,05,02,03,09,4.30
2006,05,02,03,10,4.30
2006,05,02,03,11,4.30
2006,05,02,03,12,4.30
2006,05,02,03,13,4.30
2006,05,02,03,14,4.30
2006,05,02,03,15,4.30
2006,05,02,03,16,4.20
2006,05,02,03,17,4.20
2006,05,02,03,18,4.20
2006,05,02,03,19,4.20
2006,05,02,03,20,4.20
2006,05,02,03,21,4.20
2006,05,02,03,22,4.20
2006,05,02,03,23,4.20
2006,05,02,03,24,4.20
2006,05,02,03,25,4.10
2006,05,02,03,26,4.10
2006,05,02,03,27,4.10
2006,05,02,03,28,4.00
2006,05,02,03,29,4.00
2006,05,02,03,30,4.00
2006,05,02,03,31,4.00
2006,05,02,03,32,4.00
2006,05,02,03,33,3.90
2006,05,02,03,34,3.90
2006,05,02,03,35,3.80
2006,05,02,03,36,3.80
2006,05,02,03,37,3.80
2006,05,02,03,38,3.80
2006,05,02,03,39,3.70
2006,05,02,03,40,3.70
2006,05,02,03,41,3.70
2006,05,02,03,42,3.60
2006,05,02,03,43,3.60
2006,05,02,03,44,3.60
2006,05,02,03,45,3.50
2006,05,02,03,46,3.50
2006,05,02,03,47,3.50
2006,05,02,03,48,3.50
2006,05,02,03,49,3.50
2006,05,02,03,50,3.50
2006,05,02,03,51,3.40
2006,05,02,03,52,3.40
2006,05,02,03,53,3.40
2006,05,02,03,54,3.40
2006,05,02,03,55,3.40
2006,05,02,03,56,3.30
2006,05,02,03,57,3.30
2006,05,02,03,58,3.30
2006,05,02,03,59,3.30
2006,05,02,04,00,3.30
2006,05,02,04,01,3.30
2006,05,02,04,02,3.30
2006,05,02,04,03,3.30
2006,05,02,04,04,3.20
2006,05,02,04,05,3.20
2006,05,02,04,06,3.20
2006,05,02,04,07,3.10
2006,05,02,04,08,3.10
2006,05,02,04,09,3.10
2006,05,02,04,10,3.10
2006,05,02,04,11,3.10
2006,05,02,04,12,2.90
2006,05,02,04,13,2.90
2006,05,02,04,14,2.90
2006,05,02,04,15,2.90
2006,05,02,04,16,2.90
2006,05,02,04,17,2.90
2006,05,02,04,18,2.90
2006,05,02,04,19,2.90
2006,05,02,04,20,2.90
2006,05,02,04,21,2.90
2006,05,02,04,22,2.90
2006,05,02,04,23,2.90
2006,05,02,04,24,2.80
2006,05,02,04,25,2.80
2006,05,02,04,26,2.80
2006,05,02,04,27,2.80
2006,05,02,04,28,2.80
2006,05,02,04,29,2.80
2006,05,02,04,30,2.80
2006,05,02,04,31,2.80
2006,05,02,04,32,2.80
2006,05,02,04,33,2.70
2006,05,02,04,34,2.70
2006,05,02,04,35,2.70
2006,05,02,04,36,2.70
2006,05,02,04,37,2.70
2006,05,02,04,38,2.70
2006,05,02,04,39,2.70
2006,05,02,04,40,2.70
2006,05,02,04,41,2.80
2006,05,02,04,42,2.80
2006,05,02,04,43,2.80
2006,05,02,04,44,2.80
2006,05,02,04,45,2.80
2006,05,02,04,46,2.70
2006,05,02,04,47,2.70
2006,05,02,04,48,2.70
2006,05,02,04,49,2.70
2006,05,02,04,50,2.70
2006,05,02,04,51,2.70
2006,05,02,04,52,2.70
2006,05,02,04,53,2.70
2006,05,02,04,54,2.70
2006,05,02,04,55,2.70
2006,05,02,04,56,2.70
2006,05,02,04,57,2.60
2006,05,02,04,58,2.60
2006,05,02,04,59,2.60
2006,05,02,05,00,2.60
2006,05,02,05,01,2.50
2006,05,02,05,02,2.50
2006,05,02,05,03,2.50
2006,05,02,05,04,2.50
2006,05,02,05,05,2.50
2006,05,02,05,06,2.50
2006,05,02,05,07,2.50
2006,05,02,05,08,2.50
2006,05,02,05,09,2.50
2006,05,02,05,10,2.50
2006,05,02,05,11,2.40
2006,05,02,05,12,2.40
2006,05,02,05,13,2.40
2006,05,02,05,14,2.40
2006,05,02,05,15,2.40
2006,05,02,05,16,2.40
2006,05,02,05,17,2.40
2006,05,02,05,18,2.40
2006,05,02,05,19,2.40
2006,05,02,05,20,2.40
2006,05,02,05,21,2.30
2006,05,02,05,22,2.30
2006,05,02,05,23,2.30
2006,05,02,05,24,2.30
2006,05,02,05,25,2.30
2006,05,02,05,26,2.30
2006,05,02,05,27,2.30
2006,05,02,05,28,2.30
2006,05,02,05,29,2.20
2006,05,02,05,30,2.20
2006,05,02,05,31,2.20
2006,05,02,05,32,2.20
2006,05,02,05,33,2.20
2006,05,02,05,34,2.20
2006,05,02,05,35,2.20
2006,05,02,05,36,2.20
2006,05,02,05,37,2.20
2006,05,02,05,38,2.20
2006,05,02,05,39,2.10
2006,05,02,05,40,2.10
2006,05,02,05,41,2.10
2006,05,02,05,42,2.10
2006,05,02,05,43,2.10
2006,05,02,05,44,2.10
2006,05,02,05,45,2.00
2006,05,02,05,46,2.00
2006,05,02,05,47,2.00
2006,05,02,05,48,2.00
2006,05,02,05,49,2.00
2006,05,02,05,50,2.00
2006,05,02,05,51,2.00
2006,05,02,05,52,2.00
2006,05,02,05,53,1.90
2006,05,02,05,54,1.90
2006,05,02,05,55,1.90
2006,05,02,05,56,1.90
2006,05,02,05,57,1.90
2006,05,02,05,58,1.90
2006,05,02,05,59,1.90
2006,05,02,06,00,1.90
2006,05,02,06,01,1.90
2006,05,02,06,02,1.90
2006,05,02,06,03,1.90
2006,05,02,06,04,1.90
2006,05,02,06,05,1.90
2006,05,02,06,06,1.90
2006,05,02,06,07,1.90
2006,05,02,06,08,1.90
2006,05,02,06,09,1.90
2006,05,02,06,10,1.90
2006,05,02,06,11,1.90
2006,05,02,06,12,1.90
2006,05,02,06,13,1.90
2006,05,02,06,14,1.80
2006,05,02,06,15,1.80
2006,05,02,06,16,1.80
2006,05,02,06,17,1.80
2006,05,02,06,18,1.80
2006,05,02,06,19,1.80
2006,05,02,06,20,1.80
2006,05,02,06,21,1.80
2006,05,02,06,22,1.80
2006,05,02,06,23,1.80
2006,05,02,06,24,1.90
2006,05,02,06,25,1.90
2006,05,02,06,26,1.90
2006,05,02,06,27,1.90
2006,05,02,06,28,1.90
2006,05,02,06,29,1.90
2006,05,02,06,30,2.00
2006,05,02,06,31,2.00
2006,05,02,06,32,2.00
2006,05,02,06,33,2.00
2006,05,02,06,34,2.10
2006,05,02,06,35,2.10
2006,05,02,06,36,2.10
2006,05,02,06,37,2.10
2006,05,02,06,38,2.10
2006,05,02,06,39,2.10
2006,05,02,06,40,2.10
2006,05,02,06,41,2.20
2006,05,02,06,42,2.20
2006,05,02,06,43,2.20
2006,05,02,06,44,2.20
2006,05,02,06,45,2.20
2006,05,02,06,46,2.20
2006,05,02,06,47,2.20
2006,05,02,06,48,2.20
2006,05,02,06,49,2.30
2006,05,02,06,50,2.30
2006,05,02,06,51,2.30
2006,05,02,06,52,2.40
2006,05,02,06,53,2.40
2006,05,02,06,54,2.50
2006,05,02,06,55,2.50
2006,05,02,06,56,2.50
2006,05,02,06,57,2.60
2006,05,02,06,58,2.70
2006,05,02,06,59,2.70
2006,05,02,07,00,2.70
2006,05,02,07,01,2.80
2006,05,02,07,02,2.80
2006,05,02,07,03,2.90
2006,05,02,07,04,2.90
2006,05,02,07,05,2.90
2006,05,02,07,06,3.00
2006,05,02,07,07,3.10
2006,05,02,07,08,3.10
2006,05,02,07,09,3.20
2006,05,02,07,10,3.30
2006,05,02,07,11,3.30
2006,05,02,07,12,3.40
2006,05,02,07,13,3.60
2006,05,02,07,14,3.80
2006,05,02,07,15,4.00
2006,05,02,07,16,4.20
2006,05,02,07,17,4.30
2006,05,02,07,18,4.50
2006,05,02,07,19,4.60
2006,05,02,07,20,4.70
2006,05,02,07,21,4.80
2006,05,02,07,22,4.90
2006,05,02,07,23,5.10
2006,05,02,07,24,5.20
2006,05,02,07,25,5.30
2006,05,02,07,26,5.40
2006,05,02,07,27,5.50
2006,05,02,07,28,5.50
2006,05,02,07,29,5.60
2006,05,02,07,30,5.70
2006,05,02,07,31,5.70
2006,05,02,07,32,5.70
2006,05,02,07,33,5.70
2006,05,02,07,34,5.80
2006,05,02,07,35,5.80
2006,05,02,07,36,5.90
2006,05,02,07,37,5.90
2006,05,02,07,38,5.90
2006,05,02,07,39,6.00
2006,05,02,07,40,6.00
2006,05,02,07,41,6.10
2006,05,02,07,42,6.20
2006,05,02,07,43,6.20
2006,05,02,07,44,6.20
2006,05,02,07,45,6.30
2006,05,02,07,46,6.30
2006,05,02,07,47,6.40
2006,05,02,07,48,6.40
2006,05,02,07,49,6.40
2006,05,02,07,50,6.40
2006,05,02,07,51,6.50
2006,05,02,07,52,6.60
2006,05,02,07,53,6.60
2006,05,02,07,54,6.70
2006,05,02,07,55,6.70
2006,05,02,07,56,6.80
2006,05,02,07,57,6.90
2006,05,02,07,58,7.00
2006,05,02,07,59,7.00
2006,05,02,08,00,7.00
2006,05,02,08,01,7.10
2006,05,02,08,02,7.10
2006,05,02,08,03,7.10
2006,05,02,08,04,7.10
2006,05,02,08,05,7.10
2006,05,02,08,06,7.20
2006,05,02,08,07,7.20
2006,05,02,08,08,7.20
2006,05,02,08,09,7.30
2006,05,02,08,10,7.40
2006,05,02,08,11,7.40
2006,05,02,08,12,7.50
2006,05,02,08,13,7.60
2006,05,02,08,14,7.60
2006,05,02,08,15,7.70
2006,05,02,08,16,7.80
2006,05,02,08,17,7.80
2006,05,02,08,18,7.80
2006,05,02,08,19,7.80
2006,05,02,08,20,7.90
2006,05,02,08,21,7.90
2006,05,02,08,22,8.00
2006,05,02,08,23,8.00
2006,05,02,08,24,8.10
2006,05,02,08,25,8.20
2006,05,02,08,26,8.20
2006,05,02,08,27,8.20
2006,05,02,08,28,8.20
2006,05,02,08,29,8.20
2006,05,02,08,30,8.30
2006,05,02,08,31,8.30
2006,05,02,08,32,8.30
2006,05,02,08,33,8.30
2006,05,02,08,34,8.40
2006,05,02,08,35,8.40
2006,05,02,08,36,8.40
2006,05,02,08,37,8.40
2006,05,02,08,38,8.50
2006,05,02,08,39,8.50
2006,05,02,08,40,8.50
2006,05,02,08,41,8.60
2006,05,02,08,42,8.60
2006,05,02,08,43,8.60
2006,05,02,08,44,8.60
2006,05,02,08,45,8.60
2006,05,02,08,46,8.70
2006,05,02,08,47,8.70
2006,05,02,08,48,8.70
2006,05,02,08,49,8.70
2006,05,02,08,50,8.70
2006,05,02,08,51,8.70
2006,05,02,08,52,8.80
2006,05,02,08,53,8.80
2006,05,02,08,54,8.80
2006,05,02,08,55,8.80
2006,05,02,08,56,8.90
2006,05,02,08,57,8.90
2006,05,02,08,58,9.00
2006,05,02,08,59,9.00
2006,05,02,09,00,9.10
2006,05,02,09,01,9.20
2006,05,02,09,02,9.30
2006,05,02,09,03,9.30
2006,05,02,09,04,9.30
2006,05,02,09,05,9.30
2006,05,02,09,06,9.40
2006,05,02,09,07,9.30
2006,05,02,09,08,9.40
2006,05,02,09,09,9.40
2006,05,02,09,10,9.40
2006,05,02,09,11,9.50
2006,05,02,09,12,9.50
2006,05,02,09,13,9.50
2006,05,02,09,14,9.50
2006,05,02,09,15,9.50
2006,05,02,09,16,9.50
2006,05,02,09,17,9.50
2006,05,02,09,18,9.50
2006,05,02,09,19,9.50
2006,05,02,09,20,9.60
2006,05,02,09,21,9.60
2006,05,02,09,22,9.60
2006,05,02,09,23,9.60
2006,05,02,09,24,9.60
2006,05,02,09,25,9.70
2006,05,02,09,26,9.70
2006,05,02,09,27,9.70
2006,05,02,09,28,9.70
2006,05,02,09,29,9.80
2006,05,02,09,30,9.80
2006,05,02,09,31,9.80
2006,05,02,09,32,9.80
2006,05,02,09,33,9.80
2006,05,02,09,34,9.90
2006,05,02,09,35,9.90
2006,05,02,09,36,9.80
2006,05,02,09,37,9.80
2006,05,02,09,38,9.80
2006,05,02,09,39,9.90
2006,05,02,09,40,9.90
2006,05,02,09,41,9.90
2006,05,02,09,42,9.90
2006,05,02,09,43,9.90
2006,05,02,09,44,9.90
2006,05,02,09,45,9.90
2006,05,02,09,46,9.90
2006,05,02,09,47,9.90
2006,05,02,09,48,9.90
2006,05,02,09,49,9.90
2006,05,02,09,50,9.90
2006,05,02,09,51,9.90
2006,05,02,09,52,10.00
2006,05,02,09,53,10.10
2006,05,02,09,54,10.10
2006,05,02,09,55,10.20
2006,05,02,09,56,10.20
2006,05,02,09,57,10.30
2006,05,02,09,58,10.40
2006,05,02,09,59,10.40
2006,05,02,10,00,10.40
2006,05,02,10,01,10.40
2006,05,02,10,02,10.30
2006,05,02,10,03,10.20
2006,05,02,10,04,10.20
2006,05,02,10,05,10.10
2006,05,02,10,06,10.20
2006,05,02,10,07,10.30
2006,05,02,10,08,10.30
2006,05,02,10,09,10.40
2006,05,02,10,10,10.50
2006,05,02,10,11,10.60
2006,05,02,10,12,10.60
2006,05,02,10,13,10.60
2006,05,02,10,14,10.60
2006,05,02,10,15,10.60
2006,05,02,10,16,10.70
2006,05,02,10,17,10.70
2006,05,02,10,18,10.70
2006,05,02,10,19,10.80
2006,05,02,10,20,10.80
2006,05,02,10,21,10.80
2006,05,02,10,22,10.90
2006,05,02,10,23,11.00
2006,05,02,10,24,11.00
2006,05,02,10,25,11.10
2006,05,02,10,26,11.10
2006,05,02,10,27,11.10
2006,05,02,10,28,11.20
2006,05,02,10,29,11.20
2006,05,02,10,30,11.30
2006,05,02,10,31,11.30
2006,05,02,10,32,11.20
2006,05,02,10,33,11.30
2006,05,02,10,34,11.30
2006,05,02,10,35,11.30
2006,05,02,10,36,11.30
2006,05,02,10,37,11.20
2006,05,02,10,38,11.10
2006,05,02,10,39,11.10
2006,05,02,10,40,11.10
2006,05,02,10,41,11.10
2006,05,02,10,42,11.10
2006,05,02,10,43,11.10
2006,05,02,10,44,11.10
2006,05,02,10,45,11.20
2006,05,02,10,46,11.30
2006,05,02,10,47,11.20
2006,05,02,10,48,11.10
2006,05,02,10,49,11.20
2006,05,02,10,50,11.20
2006,05,02,10,51,11.30
2006,05,02,10,52,11.40
2006,05,02,10,53,11.50
2006,05,02,10,54,11.60
2006,05,02,10,55,11.60
2006,05,02,10,56,11.60
2006,05,02,10,57,11.60
2006,05,02,10,58,11.60
2006,05,02,10,59,11.70
2006,05,02,11,00,11.70
2006,05,02,11,01,11.70
2006,05,02,11,02,11.70
2006,05,02,11,03,11.80
2006,05,02,11,04,11.80
2006,05,02,11,05,11.90
2006,05,02,11,06,12.00
2006,05,02,11,07,12.00
2006,05,02,11,08,12.10
2006,05,02,11,09,12.10
2006,05,02,11,10,12.00
2006,05,02,11,11,12.00
2006,05,02,11,12,12.00
2006,05,02,11,13,12.10
2006,05,02,11,14,12.00
2006,05,02,11,15,12.00
2006,05,02,11,16,12.00
2006,05,02,11,17,12.10
2006,05,02,11,18,12.10
2006,05,02,11,19,11.90
2006,05,02,11,20,11.80
2006,05,02,11,21,11.70
2006,05,02,11,22,11.70
2006,05,02,11,23,11.80
2006,05,02,11,24,11.80
2006,05,02,11,25,11.80
2006,05,02,11,26,11.90
2006,05,02,11,27,12.00
2006,05,02,11,28,12.00
2006,05,02,11,29,11.80
2006,05,02,11,30,11.70
2006,05,02,11,31,11.60
2006,05,02,11,32,11.60
2006,05,02,11,33,11.60
2006,05,02,11,34,11.60
2006,05,02,11,35,11.70
2006,05,02,11,36,11.80
2006,05,02,11,37,11.90
2006,05,02,11,38,11.90
2006,05,02,11,39,12.00
2006,05,02,11,40,12.00
2006,05,02,11,41,11.90
2006,05,02,11,42,11.80
2006,05,02,11,43,11.80
2006,05,02,11,44,11.70
2006,05,02,11,45,11.70
2006,05,02,11,46,11.60
2006,05,02,11,47,11.60
2006,05,02,11,48,11.70
2006,05,02,11,49,11.80
2006,05,02,11,50,11.90
2006,05,02,11,51,12.00
2006,05,02,11,52,12.10
2006,05,02,11,53,12.10
2006,05,02,11,54,12.30
2006,05,02,11,55,12.20
2006,05,02,11,56,12.10
2006,05,02,11,57,12.10
2006,05,02,11,58,12.00
2006,05,02,11,59,12.00
2006,05,02,12,00,12.00
2006,05,02,12,01,12.00
2006,05,02,12,02,12.00
2006,05,02,12,03,11.90
2006,05,02,12,04,11.90
2006,05,02,12,05,11.80
2006,05,02,12,06,11.80
2006,05,02,12,07,11.90
2006,05,02,12,08,12.00
2006,05,02,12,09,12.10
2006,05,02,12,10,12.10
2006,05,02,12,11,12.10
2006,05,02,12,12,12.00
2006,05,02,12,13,11.90
2006,05,02,12,14,11.80
2006,05,02,12,15,11.80
2006,05,02,12,16,11.90
2006,05,02,12,17,12.00
2006,05,02,12,18,12.00
2006,05,02,12,19,12.00
2006,05,02,12,20,11.90
2006,05,02,12,21,12.00
2006,05,02,12,22,12.10
2006,05,02,12,23,12.20
2006,05,02,12,24,12.30
2006,05,02,12,25,12.30
2006,05,02,12,26,12.30
2006,05,02,12,27,12.40
2006,05,02,12,28,12.40
2006,05,02,12,29,12.40
2006,05,02,12,30,12.40
2006,05,02,12,31,12.30
2006,05,02,12,32,12.20
2006,05,02,12,33,12.20
2006,05,02,12,34,12.20
2006,05,02,12,35,12.20
2006,05,02,12,36,12.20
2006,05,02,12,37,12.30
2006,05,02,12,38,12.40
2006,05,02,12,39,12.50
2006,05,02,12,40,12.60
2006,05,02,12,41,12.70
2006,05,02,12,42,12.60
2006,05,02,12,43,12.60
2006,05,02,12,44,12.50
2006,05,02,12,45,12.40
2006,05,02,12,46,12.30
2006,05,02,12,47,12.30
2006,05,02,12,48,12.20
2006,05,02,12,49,12.20
2006,05,02,12,50,12.20
2006,05,02,12,51,12.20
2006,05,02,12,52,12.30
2006,05,02,12,53,12.30
2006,05,02,12,54,12.30
2006,05,02,12,55,12.40
2006,05,02,12,56,12.40
2006,05,02,12,57,12.40
2006,05,02,12,58,12.40
2006,05,02,12,59,12.50
2006,05,02,13,00,12.50
2006,05,02,13,01,12.50
2006,05,02,13,02,12.60
2006,05,02,13,03,12.50
2006,05,02,13,04,12.50
2006,05,02,13,05,12.50
2006,05,02,13,06,12.70
2006,05,02,13,07,12.80
2006,05,02,13,08,13.00
2006,05,02,13,09,13.00
2006,05,02,13,10,13.00
2006,05,02,13,11,12.90
2006,05,02,13,12,12.90
2006,05,02,13,13,13.00
2006,05,02,13,14,13.00
2006,05,02,13,15,12.90
2006,05,02,13,16,12.90
2006,05,02,13,17,12.80
2006,05,02,13,18,12.80
2006,05,02,13,19,12.70
2006,05,02,13,20,12.70
2006,05,02,13,21,12.70
2006,05,02,13,22,12.80
2006,05,02,13,23,12.80
2006,05,02,13,24,12.80
2006,05,02,13,25,12.80
2006,05,02,13,26,12.90
2006,05,02,13,27,13.00
2006,05,02,13,28,13.10
2006,05,02,13,29,13.20
2006,05,02,13,30,13.30
2006,05,02,13,31,13.30
2006,05,02,13,32,13.30
2006,05,02,13,33,13.40
2006,05,02,13,34,13.50
2006,05,02,13,35,13.50
2006,05,02,13,36,13.50
2006,05,02,13,37,13.40
2006,05,02,13,38,13.20
2006,05,02,13,39,13.20
2006,05,02,13,40,13.20
2006,05,02,13,41,13.10
2006,05,02,13,42,13.10
2006,05,02,13,43,13.10
2006,05,02,13,44,13.30
2006,05,02,13,45,13.30
2006,05,02,13,46,13.30
2006,05,02,13,47,13.30
2006,05,02,13,48,13.30
2006,05,02,13,49,13.20
2006,05,02,13,50,13.30
2006,05,02,13,51,13.30
2006,05,02,13,52,13.30
2006,05,02,13,53,13.30
2006,05,02,13,54,13.30
2006,05,02,13,55,13.40
2006,05,02,13,56,13.30
2006,05,02,13,57,13.20
2006,05,02,13,58,13.00
2006,05,02,13,59,13.00
2006,05,02,14,00,13.10
2006,05,02,14,01,13.20
2006,05,02,14,02,13.30
2006,05,02,14,03,13.40
2006,05,02,14,04,13.60
2006,05,02,14,05,13.70
2006,05,02,14,06,13.70
2006,05,02,14,07,13.70
2006,05,02,14,08,13.70
2006,05,02,14,09,13.70
2006,05,02,14,10,13.70
2006,05,02,14,11,13.70
2006,05,02,14,12,13.70
2006,05,02,14,13,13.70
2006,05,02,14,14,13.60
2006,05,02,14,15,13.40
2006,05,02,14,16,13.30
2006,05,02,14,17,13.40
2006,05,02,14,18,13.40
2006,05,02,14,19,13.30
2006,05,02,14,20,13.20
2006,05,02,14,21,13.00
2006,05,02,14,22,12.90
2006,05,02,14,23,12.80
2006,05,02,14,24,12.80
2006,05,02,14,25,12.60
2006,05,02,14,26,12.50
2006,05,02,14,27,12.40
2006,05,02,14,28,12.50
2006,05,02,14,29,12.50
2006,05,02,14,30,12.50
2006,05,02,14,31,12.40
2006,05,02,14,32,12.40
2006,05,02,14,33,12.40
2006,05,02,14,34,12.40
2006,05,02,14,35,12.40
2006,05,02,14,36,12.40
2006,05,02,14,37,12.40
2006,05,02,14,38,12.40
2006,05,02,14,39,12.40
2006,05,02,14,40,12.30
2006,05,02,14,41,12.30
2006,05,02,14,42,12.30
2006,05,02,14,43,12.40
2006,05,02,14,44,12.50
2006,05,02,14,45,12.60
2006,05,02,14,46,12.70
2006,05,02,14,47,12.60
2006,05,02,14,48,12.50
2006,05,02,14,49,12.40
2006,05,02,14,50,12.50
2006,05,02,14,51,12.50
2006,05,02,14,52,12.50
2006,05,02,14,53,12.70
2006,05,02,14,54,12.80
2006,05,02,14,55,12.80
2006,05,02,14,56,12.80
2006,05,02,14,57,12.80
2006,05,02,14,58,12.70
2006,05,02,14,59,12.70
2006,05,02,15,00,12.70
2006,05,02,15,01,12.60
2006,05,02,15,02,12.50
2006,05,02,15,03,12.50
2006,05,02,15,04,12.50
2006,05,02,15,05,12.40
2006,05,02,15,06,12.50
2006,05,02,15,07,12.60
2006,05,02,15,08,12.60
2006,05,02,15,09,12.50
2006,05,02,15,10,12.50
2006,05,02,15,11,12.50
2006,05,02,15,12,12.50
2006,05,02,15,13,12.60
2006,05,02,15,14,12.70
2006,05,02,15,15,12.60
2006,05,02,15,16,12.60
2006,05,02,15,17,12.80
2006,05,02,15,18,12.80
2006,05,02,15,19,12.80
2006,05,02,15,20,12.80
2006,05,02,15,21,12.80
2006,05,02,15,22,12.80
2006,05,02,15,23,12.90
2006,05,02,15,24,13.00
2006,05,02,15,25,13.20
2006,05,02,15,26,13.30
2006,05,02,15,27,13.30
2006,05,02,15,28,13.20
2006,05,02,15,29,13.20
2006,05,02,15,30,13.20
2006,05,02,15,31,13.30
2006,05,02,15,32,13.30
2006,05,02,15,33,13.30
2006,05,02,15,34,13.30
2006,05,02,15,35,13.30
2006,05,02,15,36,13.20
2006,05,02,15,37,13.10
2006,05,02,15,38,13.10
2006,05,02,15,39,13.20
2006,05,02,15,40,13.30
2006,05,02,15,41,13.30
2006,05,02,15,42,13.30
2006,05,02,15,43,13.30
2006,05,02,15,44,13.40
2006,05,02,15,45,13.40
2006,05,02,15,46,13.50
2006,05,02,15,47,13.40
2006,05,02,15,48,13.40
2006,05,02,15,49,13.40
2006,05,02,15,50,13.30
2006,05,02,15,51,13.10
2006,05,02,15,52,13.10
2006,05,02,15,53,13.00
2006,05,02,15,54,13.00
2006,05,02,15,55,13.00
2006,05,02,15,56,13.10
2006,05,02,15,57,13.10
2006,05,02,15,58,13.10
2006,05,02,15,59,13.20
2006,05,02,16,00,13.20
2006,05,02,16,01,13.20
2006,05,02,16,02,13.30
2006,05,02,16,03,13.30
2006,05,02,16,04,13.30
2006,05,02,16,05,13.30
2006,05,02,16,06,13.30
2006,05,02,16,07,13.40
2006,05,02,16,08,13.40
2006,05,02,16,09,13.50
2006,05,02,16,10,13.60
2006,05,02,16,11,13.70
2006,05,02,16,12,13.60
2006,05,02,16,13,13.70
2006,05,02,16,14,13.70
2006,05,02,16,15,13.60
2006,05,02,16,16,13.60
2006,05,02,16,17,13.60
2006,05,02,16,18,13.60
2006,05,02,16,19,13.60
2006,05,02,16,20,13.50
2006,05,02,16,21,13.50
2006,05,02,16,22,13.60
2006,05,02,16,23,13.50
2006,05,02,16,24,13.40
2006,05,02,16,25,13.40
2006,05,02,16,26,13.30
2006,05,02,16,27,13.30
2006,05,02,16,28,13.30
2006,05,02,16,29,13.20
2006,05,02,16,30,13.20
2006,05,02,16,31,13.20
2006,05,02,16,32,13.30
2006,05,02,16,33,13.30
2006,05,02,16,34,13.30
2006,05,02,16,35,13.30
2006,05,02,16,36,13.30
2006,05,02,16,37,13.40
2006,05,02,16,38,13.40
2006,05,02,16,39,13.40
2006,05,02,16,40,13.40
2006,05,02,16,41,13.40
2006,05,02,16,42,13.40
2006,05,02,16,43,13.40
2006,05,02,16,44,13.40
2006,05,02,16,45,13.50
2006,05,02,16,46,13.50
2006,05,02,16,47,13.50
2006,05,02,16,48,13.50
2006,05,02,16,49,13.60
2006,05,02,16,50,13.70
2006,05,02,16,51,13.70
2006,05,02,16,52,13.90
2006,05,02,16,53,13.90
2006,05,02,16,54,13.90
2006,05,02,16,55,13.90
2006,05,02,16,56,13.90
2006,05,02,16,57,14.00
2006,05,02,16,58,14.00
2006,05,02,16,59,14.00
2006,05,02,17,00,14.10
2006,05,02,17,01,14.10
2006,05,02,17,02,14.10
2006,05,02,17,03,14.10
2006,05,02,17,04,14.10
2006,05,02,17,05,14.10
2006,05,02,17,06,14.10
2006,05,02,17,07,14.20
2006,05,02,17,08,14.20
2006,05,02,17,09,14.20
2006,05,02,17,10,14.20
2006,05,02,17,11,14.00
2006,05,02,17,12,13.90
2006,05,02,17,13,13.70
2006,05,02,17,14,13.70
2006,05,02,17,15,13.70
2006,05,02,17,16,13.70
2006,05,02,17,17,13.70
2006,05,02,17,18,13.70
2006,05,02,17,19,13.70
2006,05,02,17,20,13.70
2006,05,02,17,21,13.70
2006,05,02,17,22,13.70
2006,05,02,17,23,13.70
2006,05,02,17,24,13.70
2006,05,02,17,25,13.80
2006,05,02,17,26,13.90
2006,05,02,17,27,13.90
2006,05,02,17,28,13.80
2006,05,02,17,29,13.90
2006,05,02,17,30,13.90
2006,05,02,17,31,14.00
2006,05,02,17,32,14.00
2006,05,02,17,33,14.10
2006,05,02,17,34,14.10
2006,05,02,17,35,14.20
2006,05,02,17,36,14.10
2006,05,02,17,37,14.00
2006,05,02,17,38,13.80
2006,05,02,17,39,13.70
2006,05,02,17,40,13.50
2006,05,02,17,41,13.40
2006,05,02,17,42,13.20
2006,05,02,17,43,13.10
2006,05,02,17,44,13.00
2006,05,02,17,45,12.90